User: anonymous   Login
Location: Rehoboth Beach
(38.7438°N, 75.1341°W)
Time: 15:13:50
(UTC-04:00)
Language:

Cosmos 1452 Rocket - Orbit

View from above orbital plane
View from above orbital plane
View from above satellite
View from above satellite

Ground track
Ground track

The orbit data is extracted from the following two-line orbital elements,

1 13992U 83031B   16208.69310675 +.00000015 +00000-0 +14175-4 0  9991
2 13992 074.0518 244.1104 0006178 300.6181 189.6028 14.36043657741799
Epoch (UTC): 26 July 2016 16:38:04
Eccentricity: 0.0006178
inclination: 74.0518°
perigee height: 767 km
apogee height: 776 km
right ascension of ascending node: 244.1104°
argument of perigee: 300.6181°
revolutions per day: 14.36043657
mean anomaly at epoch: 189.6028°
orbit number at epoch: 74179

The dashed part of the orbit path shows where the satellite is in the earth's shadow,  

DLR